AVA4LG TNCC-SKCG

Flight info

Callsign AVA4LG
Flight time 1h 9m
Altitude 36000
Route DATOR1K DATOR UL220 BAQ BAQ4B
Aircraft A320/M-SDE3FGHIRWY/LB1

Departure

Time 2026-05-06 17:02
Airport Hato International Airport (TNCC)

Arrival

Time 2026-05-06 18:11
Airport Rafael Nuñez International Airport (SKCG)
Time Latitude Longitude Altitude Speed Heading
2026-05-06 16:42 12.18544 -68.95681 43 ft 0 kts 192°
2026-05-06 16:49 12.18549 -68.95680 43 ft 3 kts 192°
2026-05-06 16:49 12.18575 -68.95674 39 ft 4 kts 190°
2026-05-06 16:49 12.18602 -68.95669 41 ft 4 kts 192°
2026-05-06 16:50 12.18625 -68.95663 40 ft 4 kts 210°
2026-05-06 16:50 12.18642 -68.95646 42 ft 4 kts 255°
2026-05-06 16:50 12.18642 -68.95620 41 ft 4 kts 287°
2026-05-06 16:50 12.18633 -68.95594 40 ft 4 kts 290°
2026-05-06 16:51 12.18628 -68.95580 40 ft 0 kts 282°
2026-05-06 16:55 12.18629 -68.95583 43 ft 1 kts 282°
2026-05-06 16:55 12.18640 -68.95634 41 ft 12 kts 282°
2026-05-06 16:55 12.18656 -68.95709 41 ft 10 kts 283°
2026-05-06 16:56 12.18671 -68.95775 43 ft 9 kts 283°
2026-05-06 16:56 12.18690 -68.95868 43 ft 19 kts 281°
2026-05-06 16:56 12.18716 -68.95994 43 ft 18 kts 282°
2026-05-06 16:56 12.18741 -68.96114 41 ft 16 kts 282°
2026-05-06 16:57 12.18763 -68.96222 43 ft 15 kts 281°
2026-05-06 16:57 12.18784 -68.96323 40 ft 14 kts 282°
2026-05-06 16:57 12.18809 -68.96443 42 ft 19 kts 282°
2026-05-06 16:57 12.18837 -68.96571 42 ft 18 kts 282°
2026-05-06 16:58 12.18862 -68.96691 41 ft 17 kts 282°
2026-05-06 16:58 12.18892 -68.96795 40 ft 14 kts 309°
2026-05-06 16:58 12.18972 -68.96804 39 ft 0 kts 13°
2026-05-06 17:00 12.18975 -68.96803 41 ft 3 kts
2026-05-06 17:00 12.19050 -68.96859 39 ft 14 kts 319°
2026-05-06 17:00 12.19076 -68.96838 40 ft 6 kts 103°
2026-05-06 17:01 12.19068 -68.96817 41 ft 0 kts 108°
2026-05-06 17:01 12.19055 -68.96769 38 ft 33 kts 104°
2026-05-06 17:01 12.18958 -68.96304 43 ft 98 kts 102°
2026-05-06 17:01 12.18777 -68.95444 49 ft 147 kts 102°
2026-05-06 17:02 12.18555 -68.94413 651 ft 148 kts 102°
2026-05-06 17:02 12.18336 -68.93381 1392 ft 151 kts 102°
2026-05-06 17:02 12.18105 -68.92274 1913 ft 172 kts 102°
2026-05-06 17:02 12.17836 -68.90998 2296 ft 196 kts 103°
2026-05-06 17:03 12.17516 -68.89550 2748 ft 221 kts 108°
2026-05-06 17:03 12.16622 -68.88213 3276 ft 242 kts 143°
2026-05-06 17:03 12.14980 -68.87711 3977 ft 259 kts 179°
2026-05-06 17:03 12.13246 -68.88337 4817 ft 277 kts 213°
2026-05-06 17:04 12.11969 -68.89862 5651 ft 289 kts 235°
2026-05-06 17:04 12.11034 -68.91692 6512 ft 293 kts 241°
2026-05-06 17:04 12.10155 -68.93580 7324 ft 296 kts 241°
2026-05-06 17:04 12.09264 -68.95494 8097 ft 300 kts 240°
2026-05-06 17:05 12.08319 -68.97410 8858 ft 302 kts 236°
2026-05-06 17:05 12.07293 -68.99300 9628 ft 307 kts 243°
2026-05-06 17:05 12.06681 -69.01412 10335 ft 315 kts 261°
2026-05-06 17:05 12.06770 -69.03670 10890 ft 327 kts 282°
2026-05-06 17:06 12.07418 -69.05982 11065 ft 350 kts 287°
2026-05-06 17:06 12.08187 -69.08406 11449 ft 364 kts 288°
2026-05-06 17:06 12.08996 -69.10873 12058 ft 369 kts 289°
2026-05-06 17:06 12.09815 -69.13373 12702 ft 373 kts 289°
2026-05-06 17:07 12.10630 -69.15901 13313 ft 377 kts 288°
2026-05-06 17:07 12.11441 -69.18460 13941 ft 380 kts 288°
2026-05-06 17:07 12.12248 -69.21039 14540 ft 382 kts 288°
2026-05-06 17:07 12.13055 -69.23632 15112 ft 385 kts 289°
2026-05-06 17:08 12.13855 -69.26209 15709 ft 386 kts 289°
2026-05-06 17:08 12.14681 -69.28863 16361 ft 387 kts 289°
2026-05-06 17:08 12.15486 -69.31441 17011 ft 387 kts 289°
2026-05-06 17:08 12.16305 -69.34062 17653 ft 388 kts 290°
2026-05-06 17:09 12.17129 -69.36695 18255 ft 390 kts 290°
2026-05-06 17:09 12.17957 -69.39345 18776 ft 392 kts 290°
2026-05-06 17:09 12.18787 -69.42003 19311 ft 393 kts 290°
2026-05-06 17:09 12.19616 -69.44663 19827 ft 395 kts 291°
2026-05-06 17:10 12.20454 -69.47346 20318 ft 397 kts 291°
2026-05-06 17:10 12.21294 -69.50042 20822 ft 399 kts 290°
2026-05-06 17:10 12.22134 -69.52746 21324 ft 400 kts 291°
2026-05-06 17:10 12.22977 -69.55468 21795 ft 402 kts 290°
2026-05-06 17:11 12.23820 -69.58196 22302 ft 403 kts 290°
2026-05-06 17:11 12.24667 -69.60933 22757 ft 405 kts 290°
2026-05-06 17:11 12.25521 -69.63680 23203 ft 407 kts 290°
2026-05-06 17:11 12.26381 -69.66447 23644 ft 409 kts 289°
2026-05-06 17:12 12.27174 -69.69250 23998 ft 411 kts 287°
2026-05-06 17:12 12.27883 -69.72086 24394 ft 412 kts 286°
2026-05-06 17:12 12.28543 -69.74943 24770 ft 414 kts 285°
2026-05-06 17:12 12.29191 -69.77811 25158 ft 414 kts 285°
2026-05-06 17:13 12.29846 -69.80681 25571 ft 414 kts 285°
2026-05-06 17:13 12.30513 -69.83546 25925 ft 416 kts 285°
2026-05-06 17:13 12.31198 -69.86423 26254 ft 417 kts 285°
2026-05-06 17:13 12.31894 -69.89307 26625 ft 419 kts 285°
2026-05-06 17:14 12.32595 -69.92209 26918 ft 421 kts 285°
2026-05-06 17:14 12.33298 -69.95119 27262 ft 422 kts 285°
2026-05-06 17:14 12.34004 -69.98036 27660 ft 422 kts 285°
2026-05-06 17:14 12.34713 -70.00960 27963 ft 424 kts 285°
2026-05-06 17:15 12.35421 -70.03884 28323 ft 425 kts 285°
2026-05-06 17:15 12.35891 -70.05827 28568 ft 425 kts 285°
2026-05-06 17:15 12.36599 -70.08764 28898 ft 427 kts 285°
2026-05-06 17:15 12.37312 -70.11723 29178 ft 429 kts 285°
2026-05-06 17:16 12.38022 -70.14682 29497 ft 431 kts 284°
2026-05-06 17:16 12.38737 -70.17668 29738 ft 434 kts 284°
2026-05-06 17:16 12.39457 -70.20678 30021 ft 436 kts 285°
2026-05-06 17:16 12.40100 -70.23707 30278 ft 438 kts 279°
2026-05-06 17:17 12.40275 -70.26823 30500 ft 441 kts 269°
2026-05-06 17:17 12.39900 -70.29949 30740 ft 445 kts 259°
2026-05-06 17:17 12.39019 -70.32993 30955 ft 449 kts 253°
2026-05-06 17:17 12.38017 -70.36018 31204 ft 449 kts 253°
2026-05-06 17:18 12.37019 -70.39041 31506 ft 448 kts 253°
2026-05-06 17:18 12.36023 -70.42060 31845 ft 447 kts 253°
2026-05-06 17:18 12.35031 -70.45069 32194 ft 445 kts 253°
2026-05-06 17:18 12.34045 -70.48063 32560 ft 443 kts 253°
2026-05-06 17:19 12.33065 -70.51047 32893 ft 442 kts 253°
2026-05-06 17:19 12.32086 -70.54026 33247 ft 441 kts 253°
2026-05-06 17:19 12.31110 -70.56989 33618 ft 439 kts 253°
2026-05-06 17:19 12.30133 -70.59944 33943 ft 439 kts 253°
2026-05-06 17:20 12.29157 -70.62897 34252 ft 437 kts 253°
2026-05-06 17:20 12.28186 -70.65831 34591 ft 435 kts 253°
2026-05-06 17:20 12.27219 -70.68756 34846 ft 434 kts 253°
2026-05-06 17:20 12.26255 -70.71676 35124 ft 433 kts 253°
2026-05-06 17:21 12.25291 -70.74587 35430 ft 431 kts 252°
2026-05-06 17:21 12.24328 -70.77492 35666 ft 431 kts 252°
2026-05-06 17:21 12.23367 -70.80392 35891 ft 431 kts 252°
2026-05-06 17:22 12.21441 -70.86147 35965 ft 425 kts 251°
2026-05-06 17:22 12.19464 -70.91827 35970 ft 424 kts 251°
2026-05-06 17:23 12.17479 -70.97462 35969 ft 425 kts 251°
2026-05-06 17:23 12.15494 -71.03141 35973 ft 425 kts 251°
2026-05-06 17:24 12.13513 -71.08835 35973 ft 425 kts 252°
2026-05-06 17:24 12.11562 -71.14537 35975 ft 425 kts 252°
2026-05-06 17:25 12.09704 -71.20268 35967 ft 425 kts 253°
2026-05-06 17:25 12.07852 -71.26007 35964 ft 425 kts 252°
2026-05-06 17:26 12.05974 -71.31737 35968 ft 426 kts 252°
2026-05-06 17:26 12.04079 -71.37469 35965 ft 426 kts 252°
2026-05-06 17:27 12.02182 -71.43199 35964 ft 426 kts 252°
2026-05-06 17:27 12.00292 -71.48931 35967 ft 426 kts 252°
2026-05-06 17:28 11.98404 -71.54665 35967 ft 426 kts 252°
2026-05-06 17:28 11.96511 -71.60399 35966 ft 426 kts 252°
2026-05-06 17:29 11.94625 -71.66123 35967 ft 425 kts 252°
2026-05-06 17:29 11.92738 -71.71840 35969 ft 424 kts 253°
2026-05-06 17:30 11.90848 -71.77550 35958 ft 424 kts 252°
2026-05-06 17:30 11.88958 -71.83257 35960 ft 424 kts 252°
2026-05-06 17:31 11.87068 -71.88968 35962 ft 425 kts 252°
2026-05-06 17:31 11.85176 -71.94679 35945 ft 425 kts 252°
2026-05-06 17:32 11.83276 -72.00407 35948 ft 426 kts 252°
2026-05-06 17:32 11.81371 -72.06139 35948 ft 427 kts 252°
2026-05-06 17:33 11.79466 -72.11882 35943 ft 427 kts 252°
2026-05-06 17:33 11.77557 -72.17624 35948 ft 427 kts 252°
2026-05-06 17:34 11.75647 -72.23369 35949 ft 427 kts 252°
2026-05-06 17:34 11.73734 -72.29111 35942 ft 428 kts 253°
2026-05-06 17:35 11.71831 -72.34819 35944 ft 428 kts 253°
2026-05-06 17:35 11.69913 -72.40570 35934 ft 428 kts 253°
2026-05-06 17:36 11.67039 -72.49192 35937 ft 428 kts 252°
2026-05-06 17:36 11.65105 -72.54944 35934 ft 428 kts 252°
2026-05-06 17:37 11.63177 -72.60693 35937 ft 428 kts 252°
2026-05-06 17:37 11.61246 -72.66441 35925 ft 429 kts 252°
2026-05-06 17:38 11.59315 -72.72194 35918 ft 429 kts 252°
2026-05-06 17:38 11.57387 -72.77950 35916 ft 429 kts 252°
2026-05-06 17:39 11.55456 -72.83705 35911 ft 429 kts 252°
2026-05-06 17:39 11.53525 -72.89455 35913 ft 429 kts 252°
2026-05-06 17:40 11.51452 -72.95160 35900 ft 430 kts 249°
2026-05-06 17:40 11.49041 -73.00751 35895 ft 431 kts 247°
2026-05-06 17:41 11.46568 -73.06286 35900 ft 433 kts 247°
2026-05-06 17:41 11.44118 -73.11938 35905 ft 433 kts 248°
2026-05-06 17:42 11.41737 -73.17541 35912 ft 434 kts 248°
2026-05-06 17:42 11.39338 -73.23188 35942 ft 434 kts 248°
2026-05-06 17:43 11.36929 -73.28839 35938 ft 435 kts 248°
2026-05-06 17:43 11.34512 -73.34489 35941 ft 435 kts 248°
2026-05-06 17:44 11.32090 -73.40139 35958 ft 435 kts 248°
2026-05-06 17:44 11.29669 -73.45791 35962 ft 435 kts 248°
2026-05-06 17:45 11.27245 -73.51447 36030 ft 435 kts 248°
2026-05-06 17:45 11.24815 -73.57097 36033 ft 435 kts 248°
2026-05-06 17:46 11.22394 -73.62749 36022 ft 435 kts 248°
2026-05-06 17:46 11.19973 -73.68396 36025 ft 435 kts 249°
2026-05-06 17:47 11.17561 -73.74043 36027 ft 435 kts 248°
2026-05-06 17:47 11.15167 -73.79690 36044 ft 435 kts 249°
2026-05-06 17:48 11.12768 -73.85336 36051 ft 434 kts 248°
2026-05-06 17:48 11.10360 -73.90981 35941 ft 435 kts 249°
2026-05-06 17:49 11.09157 -73.93799 35657 ft 434 kts 248°
2026-05-06 17:49 11.07956 -73.96617 35421 ft 433 kts 248°
2026-05-06 17:49 11.06781 -73.99379 35006 ft 429 kts 249°
2026-05-06 17:49 11.05596 -74.02162 34493 ft 428 kts 248°
2026-05-06 17:50 11.04414 -74.04935 33971 ft 427 kts 248°
2026-05-06 17:50 11.03233 -74.07707 33339 ft 425 kts 248°
2026-05-06 17:50 11.02063 -74.10457 32839 ft 422 kts 248°
2026-05-06 17:50 11.00898 -74.13192 32330 ft 420 kts 248°
2026-05-06 17:51 10.99738 -74.15909 31830 ft 418 kts 248°
2026-05-06 17:51 10.98577 -74.18616 31332 ft 416 kts 248°
2026-05-06 17:51 10.97422 -74.21311 30848 ft 414 kts 248°
2026-05-06 17:51 10.96309 -74.24004 30356 ft 411 kts 252°
2026-05-06 17:52 10.95511 -74.26788 29868 ft 408 kts 256°
2026-05-06 17:52 10.94768 -74.29568 29364 ft 405 kts 256°
2026-05-06 17:52 10.94033 -74.32319 28922 ft 401 kts 256°
2026-05-06 17:52 10.93302 -74.35040 28476 ft 397 kts 256°
2026-05-06 17:53 10.92575 -74.37739 28026 ft 394 kts 256°
2026-05-06 17:53 10.91854 -74.40413 27592 ft 390 kts 256°
2026-05-06 17:53 10.91139 -74.43067 27158 ft 388 kts 256°
2026-05-06 17:53 10.90428 -74.45702 26714 ft 386 kts 256°
2026-05-06 17:54 10.89720 -74.48328 26279 ft 384 kts 256°
2026-05-06 17:54 10.89014 -74.50944 25826 ft 383 kts 256°
2026-05-06 17:54 10.88312 -74.53551 25367 ft 382 kts 256°
2026-05-06 17:54 10.87609 -74.56158 24907 ft 382 kts 256°
2026-05-06 17:55 10.86904 -74.58763 24438 ft 382 kts 256°
2026-05-06 17:55 10.86197 -74.61373 23968 ft 383 kts 256°
2026-05-06 17:55 10.85489 -74.63987 23491 ft 384 kts 256°
2026-05-06 17:55 10.84781 -74.66613 22954 ft 384 kts 256°
2026-05-06 17:56 10.84073 -74.69229 22480 ft 383 kts 256°
2026-05-06 17:56 10.83366 -74.71838 22019 ft 382 kts 256°
2026-05-06 17:56 10.82662 -74.74441 21557 ft 381 kts 256°
2026-05-06 17:56 10.81961 -74.77036 21100 ft 380 kts 256°
2026-05-06 17:57 10.81261 -74.79623 20648 ft 379 kts 256°
2026-05-06 17:57 10.80561 -74.82209 20196 ft 379 kts 255°
2026-05-06 17:57 10.79731 -74.84742 19749 ft 378 kts 245°
2026-05-06 17:57 10.78409 -74.87045 19306 ft 377 kts 232°
2026-05-06 17:58 10.76666 -74.89026 18854 ft 376 kts 225°
2026-05-06 17:58 10.74839 -74.90927 18421 ft 375 kts 224°
2026-05-06 17:58 10.73022 -74.92817 17949 ft 369 kts 224°
2026-05-06 17:58 10.71267 -74.94645 17613 ft 355 kts 224°
2026-05-06 17:59 10.69549 -74.96440 17225 ft 353 kts 224°
2026-05-06 17:59 10.67842 -74.98226 16818 ft 352 kts 224°
2026-05-06 17:59 10.66140 -75.00006 16415 ft 351 kts 224°
2026-05-06 17:59 10.64437 -75.01783 16016 ft 350 kts 224°
2026-05-06 18:00 10.62755 -75.03538 15620 ft 341 kts 223°
2026-05-06 18:00 10.61126 -75.05237 15247 ft 330 kts 223°
2026-05-06 18:00 10.59549 -75.06885 14887 ft 321 kts 223°
2026-05-06 18:00 10.58003 -75.08498 14528 ft 319 kts 223°
2026-05-06 18:01 10.56448 -75.10115 14157 ft 321 kts 222°
2026-05-06 18:01 10.54884 -75.11740 13792 ft 322 kts 222°
2026-05-06 18:01 10.53316 -75.13370 13398 ft 324 kts 222°
2026-05-06 18:01 10.51741 -75.15010 13009 ft 324 kts 222°
2026-05-06 18:02 10.50164 -75.16653 12624 ft 325 kts 222°
2026-05-06 18:02 10.49127 -75.17733 12363 ft 319 kts 222°
2026-05-06 18:02 10.47585 -75.19341 11992 ft 318 kts 223°
2026-05-06 18:02 10.46038 -75.20953 11609 ft 318 kts 223°
2026-05-06 18:03 10.44493 -75.22561 11225 ft 318 kts 223°
2026-05-06 18:03 10.42945 -75.24172 10813 ft 318 kts 223°
2026-05-06 18:03 10.41422 -75.25760 10420 ft 308 kts 223°
2026-05-06 18:03 10.39954 -75.27295 10047 ft 298 kts 223°
2026-05-06 18:04 10.38531 -75.28779 9664 ft 289 kts 223°
2026-05-06 18:04 10.37151 -75.30216 9264 ft 279 kts 223°
2026-05-06 18:04 10.35825 -75.31598 8958 ft 267 kts 223°
2026-05-06 18:04 10.34543 -75.32931 8561 ft 260 kts 223°
2026-05-06 18:05 10.33296 -75.34225 8192 ft 252 kts 223°
2026-05-06 18:05 10.32071 -75.35495 7843 ft 252 kts 223°
2026-05-06 18:05 10.30838 -75.36772 7490 ft 255 kts 223°
2026-05-06 18:05 10.29589 -75.38066 7108 ft 257 kts 223°
2026-05-06 18:06 10.28329 -75.39370 6726 ft 259 kts 223°
2026-05-06 18:06 10.27093 -75.40677 6340 ft 254 kts 229°
2026-05-06 18:06 10.26237 -75.42223 5950 ft 251 kts 251°
2026-05-06 18:06 10.26005 -75.43963 5548 ft 249 kts 271°
2026-05-06 18:07 10.26082 -75.45705 5140 ft 246 kts 272°
2026-05-06 18:07 10.26183 -75.47433 4732 ft 244 kts 278°
2026-05-06 18:07 10.26694 -75.49059 4310 ft 239 kts 298°
2026-05-06 18:07 10.27649 -75.50367 3924 ft 225 kts 318°
2026-05-06 18:08 10.28908 -75.51287 3383 ft 223 kts 335°
2026-05-06 18:08 10.30334 -75.51750 3054 ft 209 kts 353°
2026-05-06 18:08 10.31719 -75.51821 2802 ft 190 kts
2026-05-06 18:08 10.33034 -75.51752 2380 ft 190 kts
2026-05-06 18:09 10.34361 -75.51692 1908 ft 192 kts
2026-05-06 18:09 10.35688 -75.51637 1439 ft 193 kts
2026-05-06 18:09 10.37006 -75.51587 1109 ft 186 kts
2026-05-06 18:09 10.38234 -75.51539 950 ft 164 kts
2026-05-06 18:10 10.39320 -75.51491 752 ft 148 kts
2026-05-06 18:10 10.40305 -75.51448 567 ft 138 kts
2026-05-06 18:10 10.41262 -75.51408 427 ft 138 kts
2026-05-06 18:10 10.42217 -75.51372 258 ft 135 kts
2026-05-06 18:11 10.43152 -75.51328 93 ft 134 kts
2026-05-06 18:11 10.43994 -75.51300 51 ft 94 kts
2026-05-06 18:11 10.44392 -75.51283 51 ft 37 kts
2026-05-06 18:11 10.44539 -75.51307 50 ft 12 kts 302°
2026-05-06 18:12 10.44553 -75.51369 51 ft 8 kts 276°
2026-05-06 18:12 10.44556 -75.51415 51 ft 6 kts 272°
2026-05-06 18:12 10.44566 -75.51449 50 ft 5 kts 314°
2026-05-06 18:12 10.44611 -75.51458 51 ft 1 kts 326°
2026-05-06 18:13 10.44608 -75.51486 51 ft 11 kts 267°
2026-05-06 18:13 10.44609 -75.51535 51 ft 3 kts 273°
2026-05-06 18:13 10.44610 -75.51547 51 ft 0 kts 272°